START_TIME,STEP,MOV.,H8,t_acc.,H43,t_acc.,M25,t_acc.,H9,t_acc.
1979-07-22 23:07:41.090 ,0,0,0.,12.0,0.,12.0,0.,12.0,0.,12.0
1979-07-22 23:07:53.090 ,0,0,0.,12.0,0.,12.0,0.,12.0,0.,12.0
1979-07-22 23:08:29.090 ,4,0,0.,12.0,0.,12.0,0.,12.0,0.,12.0
1979-07-22 23:08:41.090 ,4,0,0.,12.0,0.,12.0,0.,12.0,0.,12.0
1979-07-22 23:08:53.090 ,3,0,0.,12.0,0.,12.0,0.,12.0,0.,12.0
1979-07-22 23:09:05.090 ,3,0,0.,12.0,0.,12.0,0.,12.0,0.,12.0
1979-07-22 23:09:17.090 ,3,0,0.,12.0,0.,12.0,0.,12.0,0.,12.0
1979-07-22 23:09:29.090 ,3,0,0.,12.0,0.,12.0,0.,12.0,0.,12.0
1979-07-22 23:09:41.090 ,2,0,0.,12.0,0.,12.0,0.,12.0,0.,12.0
1979-07-22 23:09:53.090 ,2,0,0.,12.0,0.,12.0,0.,12.0,0.,12.0
1979-07-22 23:10:05.090 ,2,0,0.,12.0,0.,12.0,0.,12.0,0.,12.0
1979-07-22 23:10:17.090 ,2,0,0.,12.0,0.,12.0,0.,12.0,0.,12.0
1979-07-22 23:10:29.090 ,1,0,0.,12.0,0.,12.0,0.,12.0,0.,12.0
1979-07-22 23:10:41.090 ,1,0,0.,12.0,0.,12.0,0.,12.0,0.,12.0
1979-07-22 23:10:53.090 ,1,0,0.,12.0,0.,12.0,0.,12.0,0.,12.0
1979-07-22 23:11:05.090 ,1,0,0.,12.0,0.,12.0,0.,12.0,0.,12.0
1979-07-22 23:11:17.090 ,0,0,0.,12.0,0.,12.0,0.,12.0,0.,12.0
1979-07-22 23:11:29.090 ,0,0,0.,12.0,0.,12.0,0.,12.0,0.,12.0
1979-07-22 23:11:41.090 ,0,0,0.,12.0,0.,12.0,0.,12.0,0.,12.0
1979-07-22 23:11:53.090 ,0,0,0.,12.0,0.,12.0,0.,12.0,0.,12.0
1979-07-22 23:12:05.090 ,0,0,0.,12.0,0.,12.0,0.,12.0,0.,12.0
1979-07-22 23:12:17.090 ,0,0,0.,12.0,0.,12.0,0.,12.0,0.,12.0
1979-07-22 23:12:29.090 ,0,0,0.,12.0,0.,12.0,0.,12.0,0.,12.0
1979-07-22 23:12:41.090 ,0,0,0.,12.0,0.,12.0,0.,12.0,0.,12.0
1979-07-22 23:12:53.090 ,1,0,0.,12.0,0.,12.0,0.,12.0,0.,12.0
1979-07-22 23:13:05.090 ,1,0,0.,12.0,0.,12.0,0.,12.0,0.,12.0
1979-07-22 23:13:17.090 ,1,0,0.,12.0,0.,12.0,0.,12.0,0.,12.0
1979-07-22 23:13:29.090 ,1,0,0.,12.0,0.,12.0,0.,12.0,0.,12.0
1979-07-22 23:13:41.090 ,2,0,0.,12.0,0.,12.0,0.,12.0,0.,12.0
1979-07-22 23:13:53.090 ,2,0,0.,12.0,0.,12.0,0.,12.0,0.,12.0
1979-07-22 23:14:05.090 ,2,0,0.,12.0,0.,12.0,0.,12.0,0.,12.0
1979-07-22 23:14:17.090 ,2,0,0.,12.0,0.,12.0,0.,12.0,0.,12.0
1979-07-22 23:14:29.090 ,3,0,0.,12.0,0.,12.0,0.,12.0,0.,12.0
1979-07-22 23:14:41.090 ,3,0,0.,12.0,0.,12.0,0.,12.0,0.,12.0
1979-07-22 23:14:53.090 ,3,0,0.,12.0,0.,12.0,0.,12.0,0.,12.0
1979-07-22 23:15:05.090 ,3,0,0.,12.0,0.,12.0,0.,12.0,0.,12.0
1979-07-22 23:15:17.090 ,4,0,0.,12.0,0.,12.0,0.,12.0,0.,12.0
1979-07-22 23:15:29.090 ,4,0,0.,12.0,0.,12.0,0.,12.0,0.,12.0
1979-07-22 23:15:41.090 ,4,0,0.,12.0,0.,12.0,0.,12.0,0.,12.0
1979-07-22 23:15:53.090 ,4,0,0.,12.0,0.,12.0,0.,12.0,0.,12.0
1979-07-22 23:16:05.090 ,5,0,0.,12.0,0.,12.0,0.,12.0,0.,12.0
1979-07-22 23:16:17.090 ,5,0,0.,12.0,0.,12.0,0.,12.0,0.,12.0
1979-07-22 23:16:29.090 ,5,0,0.,12.0,0.,12.0,0.,12.0,0.,12.0
1979-07-22 23:16:41.090 ,5,0,0.,12.0,0.,12.0,0.,12.0,0.,12.0
1979-07-22 23:16:53.090 ,6,0,0.,12.0,0.,12.0,0.,12.0,0.,12.0
1979-07-22 23:17:05.090 ,6,0,0.,12.0,0.,12.0,0.,12.0,0.,12.0
1979-07-22 23:17:17.090 ,6,0,0.,12.0,0.,12.0,0.,12.0,0.,12.0
1979-07-22 23:17:29.090 ,6,0,0.,12.0,0.,12.0,0.,12.0,0.,12.0
1979-07-22 23:17:41.090 ,7,0,0.,12.0,0.,12.0,0.,12.0,0.,12.0
1979-07-22 23:17:53.090 ,7,0,0.,12.0,0.,12.0,0.,12.0,0.,12.0
1979-07-22 23:18:05.090 ,7,0,0.,12.0,0.,12.0,0.,12.0,0.,12.0
1979-07-22 23:18:17.090 ,7,0,0.,12.0,0.,12.0,0.,12.0,0.,12.0
1979-07-22 23:18:29.090 ,7,0,0.,12.0,0.,12.0,0.,12.0,0.,12.0
1979-07-22 23:18:41.090 ,7,0,0.,12.0,0.,12.0,0.,12.0,0.,12.0
1979-07-22 23:18:53.090 ,7,0,0.,12.0,0.,12.0,0.,12.0,0.,12.0
1979-07-22 23:19:05.090 ,7,0,0.,12.0,0.,12.0,0.,12.0,0.,12.0
1979-07-22 23:19:17.090 ,6,0,0.,12.0,0.,12.0,0.,12.0,0.,12.0
1979-07-22 23:19:29.090 ,6,0,0.,12.0,0.,12.0,0.,12.0,0.,12.0
1979-07-22 23:19:41.090 ,6,0,0.,12.0,0.,12.0,0.,12.0,0.,12.0
1979-07-22 23:19:53.090 ,6,0,0.,12.0,0.,12.0,0.,12.0,0.,12.0
1979-07-22 23:20:05.090 ,5,0,1.,12.0,0.,12.0,0.,12.0,0.,12.0
1979-07-22 23:20:17.090 ,5,0,0.,12.0,0.,12.0,0.,12.0,0.,12.0
1979-07-22 23:20:29.090 ,5,0,0.,12.0,0.,12.0,0.,12.0,0.,12.0
1979-07-22 23:20:41.090 ,5,0,0.,12.0,0.,12.0,0.,12.0,0.,12.0
1979-07-22 23:20:53.090 ,4,0,0.,12.0,0.,12.0,0.,12.0,0.,12.0
1979-07-22 23:21:05.090 ,4,0,0.,12.0,0.,12.0,0.,12.0,0.,12.0
1979-07-22 23:21:17.090 ,4,0,0.,12.0,0.,12.0,0.,12.0,0.,12.0
1979-07-22 23:21:29.090 ,4,0,0.,12.0,0.,12.0,0.,12.0,0.,12.0
1979-07-22 23:21:41.090 ,3,0,0.,12.0,0.,12.0,0.,12.0,0.,12.0
1979-07-22 23:21:53.090 ,3,0,0.,12.0,0.,12.0,0.,12.0,0.,12.0
1979-07-22 23:22:05.090 ,3,0,0.,12.0,0.,12.0,0.,12.0,0.,12.0
1979-07-22 23:22:17.090 ,3,0,0.,12.0,0.,12.0,0.,12.0,0.,12.0
1979-07-22 23:22:29.090 ,2,0,0.,12.0,0.,12.0,0.,12.0,0.,12.0
1979-07-22 23:22:41.090 ,2,0,0.,12.0,0.,12.0,0.,12.0,0.,12.0
1979-07-22 23:22:53.090 ,2,0,0.,12.0,0.,12.0,0.,12.0,0.,12.0
1979-07-22 23:23:05.090 ,2,0,0.,12.0,0.,12.0,0.,12.0,0.,12.0
1979-07-22 23:23:17.090 ,1,0,0.,12.0,0.,12.0,0.,12.0,0.,12.0
1979-07-22 23:23:29.090 ,1,0,0.,12.0,0.,12.0,0.,12.0,0.,12.0
1979-07-22 23:23:41.090 ,1,0,0.,12.0,0.,12.0,0.,12.0,0.,12.0
1979-07-22 23:23:53.090 ,1,0,0.,12.0,0.,12.0,0.,12.0,0.,12.0
1979-07-22 23:24:05.090 ,0,0,0.,12.0,0.,12.0,0.,12.0,0.,12.0
1979-07-22 23:24:17.090 ,0,0,0.,12.0,0.,12.0,0.,12.0,0.,12.0
1979-07-22 23:24:29.090 ,0,0,0.,12.0,0.,12.0,0.,12.0,0.,12.0
1979-07-22 23:24:41.090 ,0,0,0.,12.0,0.,12.0,0.,12.0,0.,12.0
1979-07-22 23:24:53.090 ,0,0,0.,12.0,0.,12.0,0.,12.0,0.,12.0
1979-07-22 23:25:05.090 ,0,0,0.,12.0,0.,12.0,0.,12.0,0.,12.0
1979-07-22 23:25:17.090 ,0,0,0.,12.0,0.,12.0,0.,12.0,0.,12.0
1979-07-22 23:25:29.090 ,0,0,0.,12.0,0.,12.0,0.,12.0,0.,12.0
1979-07-22 23:25:41.090 ,1,0,0.,12.0,0.,12.0,0.,12.0,0.,12.0
1979-07-22 23:25:53.090 ,1,0,0.,12.0,0.,12.0,0.,12.0,0.,12.0
1979-07-22 23:26:05.090 ,1,0,0.,12.0,0.,12.0,0.,12.0,0.,12.0
1979-07-22 23:26:17.090 ,1,0,0.,12.0,0.,12.0,0.,12.0,0.,12.0
1979-07-22 23:26:29.090 ,2,0,0.,12.0,0.,12.0,0.,12.0,0.,12.0
1979-07-22 23:26:41.090 ,2,0,0.,12.0,0.,12.0,0.,12.0,0.,12.0
1979-07-22 23:26:53.090 ,2,0,0.,12.0,0.,12.0,0.,12.0,0.,12.0
1979-07-22 23:27:05.090 ,2,0,0.,12.0,0.,12.0,0.,12.0,0.,12.0
1979-07-22 23:27:17.090 ,3,0,0.,12.0,0.,12.0,0.,12.0,0.,12.0
1979-07-22 23:27:29.090 ,3,0,1.,12.0,0.,12.0,0.,12.0,0.,12.0
1979-07-22 23:27:41.090 ,3,0,0.,12.0,0.,12.0,0.,12.0,0.,12.0
1979-07-22 23:27:53.090 ,3,0,0.,12.0,0.,12.0,0.,12.0,0.,12.0
1979-07-22 23:28:05.090 ,4,0,0.,12.0,0.,12.0,0.,12.0,0.,12.0
1979-07-22 23:28:17.090 ,4,0,0.,12.0,0.,12.0,0.,12.0,0.,12.0
1979-07-22 23:28:29.090 ,4,0,0.,12.0,0.,12.0,0.,12.0,0.,12.0
1979-07-22 23:28:41.090 ,4,0,0.,12.0,0.,12.0,0.,12.0,0.,12.0
1979-07-22 23:28:53.090 ,5,0,0.,12.0,0.,12.0,0.,12.0,0.,12.0
1979-07-22 23:29:05.090 ,5,0,0.,12.0,0.,12.0,0.,12.0,0.,12.0
1979-07-22 23:29:17.090 ,5,0,0.,12.0,0.,12.0,0.,12.0,0.,12.0
1979-07-22 23:29:29.090 ,5,0,0.,12.0,0.,12.0,0.,12.0,0.,12.0
1979-07-22 23:29:41.090 ,6,0,0.,12.0,0.,12.0,0.,12.0,0.,12.0
1979-07-22 23:29:53.090 ,6,0,0.,12.0,0.,12.0,0.,12.0,0.,12.0
1979-07-22 23:30:05.090 ,6,0,0.,12.0,0.,12.0,0.,12.0,0.,12.0
1979-07-22 23:30:17.090 ,6,0,0.,12.0,0.,12.0,0.,12.0,0.,12.0
1979-07-22 23:30:29.090 ,7,0,0.,12.0,0.,12.0,0.,12.0,0.,12.0
1979-07-22 23:30:41.090 ,7,0,0.,12.0,0.,12.0,0.,12.0,0.,12.0
1979-07-22 23:30:53.090 ,7,0,0.,12.0,0.,12.0,0.,12.0,0.,12.0
1979-07-22 23:31:05.090 ,7,0,0.,12.0,0.,12.0,0.,12.0,0.,12.0
1979-07-22 23:31:17.090 ,3,1,0.,12.0,0.,12.0,0.,12.0,0.,12.0
1979-07-22 23:31:29.090 ,3,1,0.,12.0,0.,12.0,0.,12.0,0.,12.0
1979-07-22 23:31:41.090 ,0,1,0.,12.0,0.,12.0,0.,12.0,0.,12.0
1979-07-22 23:31:53.090 ,0,1,0.,12.0,0.,12.0,0.,12.0,0.,12.0
1979-07-22 23:32:05.090 ,4,1,0.,12.0,0.,12.0,0.,12.0,0.,12.0
1979-07-22 23:32:17.090 ,4,1,0.,12.0,0.,12.0,0.,12.0,0.,12.0
1979-07-22 23:32:29.090 ,7,1,0.,12.0,0.,12.0,0.,12.0,0.,12.0
1979-07-22 23:32:41.090 ,7,1,0.,12.0,0.,12.0,0.,12.0,0.,12.0
1979-07-22 23:32:53.090 ,3,1,0.,12.0,0.,12.0,0.,12.0,0.,12.0
1979-07-22 23:33:05.090 ,3,1,0.,12.0,0.,12.0,0.,12.0,0.,12.0
1979-07-22 23:33:17.090 ,0,1,0.,12.0,0.,12.0,0.,12.0,0.,12.0
1979-07-22 23:33:29.090 ,0,1,0.,12.0,0.,12.0,0.,12.0,0.,12.0
1979-07-22 23:33:41.090 ,4,1,0.,12.0,0.,12.0,0.,12.0,0.,12.0
1979-07-22 23:33:53.090 ,4,1,0.,12.0,0.,12.0,0.,12.0,0.,12.0
1979-07-22 23:34:05.090 ,7,1,0.,12.0,0.,12.0,0.,12.0,0.,12.0
1979-07-22 23:34:17.090 ,7,1,0.,12.0,0.,12.0,0.,12.0,0.,12.0
1979-07-22 23:34:29.090 ,3,1,0.,12.0,0.,12.0,0.,12.0,0.,12.0
1979-07-22 23:34:41.090 ,3,1,0.,12.0,0.,12.0,0.,12.0,0.,12.0
1979-07-22 23:34:53.090 ,0,1,0.,12.0,0.,12.0,0.,12.0,0.,12.0
1979-07-22 23:35:05.090 ,0,1,0.,12.0,0.,12.0,0.,12.0,0.,12.0
1979-07-22 23:35:17.090 ,4,1,0.,12.0,0.,12.0,0.,12.0,0.,12.0
1979-07-22 23:35:29.090 ,4,1,0.,12.0,0.,12.0,0.,12.0,0.,12.0
1979-07-22 23:35:41.090 ,7,1,0.,12.0,0.,12.0,0.,12.0,0.,12.0
1979-07-22 23:35:53.090 ,7,1,0.,12.0,0.,12.0,0.,12.0,0.,12.0
1979-07-22 23:36:05.090 ,3,1,0.,12.0,0.,12.0,0.,12.0,0.,12.0
1979-07-22 23:36:17.090 ,3,1,0.,12.0,0.,12.0,0.,12.0,0.,12.0
1979-07-22 23:36:29.090 ,0,1,0.,12.0,0.,12.0,0.,12.0,0.,12.0
1979-07-22 23:36:41.090 ,0,1,0.,12.0,0.,12.0,0.,12.0,0.,12.0
1979-07-22 23:36:53.090 ,4,1,0.,12.0,0.,12.0,0.,12.0,0.,12.0
1979-07-22 23:37:05.090 ,4,1,0.,12.0,0.,12.0,0.,12.0,0.,12.0
1979-07-22 23:37:17.090 ,7,1,0.,12.0,0.,12.0,0.,12.0,0.,12.0
1979-07-22 23:37:29.090 ,7,1,0.,12.0,0.,12.0,0.,12.0,0.,12.0
1979-07-22 23:37:41.090 ,3,1,0.,12.0,0.,12.0,0.,12.0,0.,12.0
1979-07-22 23:37:53.090 ,3,1,0.,12.0,0.,12.0,0.,12.0,0.,12.0
1979-07-22 23:38:05.090 ,0,1,0.,12.0,0.,12.0,0.,12.0,0.,12.0
1979-07-22 23:38:17.090 ,0,1,0.,12.0,0.,12.0,0.,12.0,0.,12.0
1979-07-22 23:38:29.090 ,4,1,0.,12.0,0.,12.0,0.,12.0,0.,12.0
1979-07-22 23:38:41.090 ,4,1,0.,12.0,0.,12.0,0.,12.0,0.,12.0
1979-07-22 23:38:53.090 ,7,1,0.,12.0,0.,12.0,0.,12.0,0.,12.0
1979-07-22 23:39:05.090 ,7,1,0.,12.0,0.,12.0,0.,12.0,0.,12.0
1979-07-22 23:39:17.090 ,3,1,0.,12.0,0.,12.0,0.,12.0,0.,12.0
1979-07-22 23:39:29.090 ,3,1,0.,12.0,0.,12.0,0.,12.0,0.,12.0
1979-07-22 23:39:41.090 ,0,1,0.,12.0,0.,12.0,0.,12.0,0.,12.0
1979-07-22 23:39:53.090 ,0,1,0.,12.0,0.,12.0,0.,12.0,0.,12.0
1979-07-22 23:40:05.090 ,4,1,0.,12.0,0.,12.0,0.,12.0,0.,12.0
1979-07-22 23:40:17.090 ,4,1,1.,12.0,0.,12.0,0.,12.0,0.,12.0
1979-07-22 23:40:29.090 ,7,1,0.,12.0,0.,12.0,0.,12.0,0.,12.0
1979-07-22 23:40:41.090 ,7,1,0.,12.0,0.,12.0,0.,12.0,0.,12.0
1979-07-22 23:40:53.090 ,3,1,0.,12.0,0.,12.0,0.,12.0,0.,12.0
1979-07-22 23:41:05.090 ,3,1,0.,12.0,0.,12.0,0.,12.0,0.,12.0
1979-07-22 23:41:17.090 ,0,1,0.,12.0,0.,12.0,0.,12.0,0.,12.0
1979-07-22 23:41:29.090 ,0,1,0.,12.0,0.,12.0,0.,12.0,0.,12.0
1979-07-22 23:41:41.090 ,0,0,0.,12.0,0.,12.0,0.,12.0,0.,12.0
1979-07-22 23:41:53.090 ,0,0,0.,12.0,0.,12.0,0.,12.0,0.,12.0
1979-07-22 23:42:05.090 ,0,0,0.,12.0,0.,12.0,0.,12.0,0.,12.0
1979-07-22 23:42:17.090 ,0,0,0.,12.0,0.,12.0,0.,12.0,0.,12.0
1979-07-22 23:42:29.090 ,5,0,0.,12.0,0.,12.0,0.,12.0,0.,12.0
1979-07-22 23:42:41.090 ,5,0,0.,12.0,0.,12.0,0.,12.0,0.,12.0
1979-07-22 23:42:53.090 ,5,0,0.,12.0,0.,12.0,0.,12.0,0.,12.0
1979-07-22 23:43:05.090 ,5,0,0.,12.0,0.,12.0,0.,12.0,0.,12.0
1979-07-22 23:43:17.090 ,4,0,0.,12.0,0.,12.0,0.,12.0,0.,12.0
1979-07-22 23:43:29.090 ,4,0,0.,12.0,0.,12.0,0.,12.0,0.,12.0
1979-07-22 23:43:41.090 ,4,0,0.,12.0,0.,12.0,0.,12.0,0.,12.0
1979-07-22 23:43:53.090 ,4,0,0.,12.0,0.,12.0,0.,12.0,0.,12.0
1979-07-22 23:44:05.090 ,3,0,0.,12.0,0.,12.0,0.,12.0,0.,12.0
1979-07-22 23:44:17.090 ,3,0,0.,12.0,0.,12.0,0.,12.0,0.,12.0
1979-07-22 23:44:29.090 ,3,0,0.,12.0,0.,12.0,0.,12.0,0.,12.0
1979-07-22 23:44:41.090 ,3,0,0.,12.0,0.,12.0,0.,12.0,0.,12.0
1979-07-22 23:44:53.090 ,2,0,0.,12.0,0.,12.0,0.,12.0,0.,12.0
1979-07-22 23:45:05.090 ,2,0,0.,12.0,0.,12.0,0.,12.0,0.,12.0
1979-07-22 23:45:17.090 ,2,0,0.,12.0,0.,12.0,0.,12.0,0.,12.0
1979-07-22 23:45:29.090 ,2,0,0.,12.0,0.,12.0,0.,12.0,0.,12.0
1979-07-22 23:45:41.090 ,1,0,0.,12.0,0.,12.0,0.,12.0,0.,12.0
1979-07-22 23:45:53.090 ,1,0,0.,12.0,0.,12.0,0.,12.0,0.,12.0
1979-07-22 23:46:05.090 ,1,0,0.,12.0,0.,12.0,0.,12.0,0.,12.0
1979-07-22 23:46:17.090 ,1,0,0.,12.0,0.,12.0,0.,12.0,0.,12.0
1979-07-22 23:46:29.090 ,0,0,0.,12.0,0.,12.0,0.,12.0,0.,12.0
1979-07-22 23:46:41.090 ,0,0,0.,12.0,0.,12.0,0.,12.0,0.,12.0
1979-07-22 23:46:53.090 ,0,0,0.,12.0,0.,12.0,0.,12.0,0.,12.0
1979-07-22 23:47:05.090 ,0,0,0.,12.0,0.,12.0,0.,12.0,0.,12.0
1979-07-22 23:47:17.090 ,0,0,0.,12.0,0.,12.0,0.,12.0,0.,12.0
1979-07-22 23:47:29.090 ,0,0,0.,12.0,0.,12.0,0.,12.0,0.,12.0
1979-07-22 23:47:41.090 ,0,0,0.,12.0,0.,12.0,0.,12.0,0.,12.0
1979-07-22 23:47:53.090 ,0,0,0.,12.0,0.,12.0,0.,12.0,0.,12.0
1979-07-22 23:48:05.090 ,1,0,0.,12.0,0.,12.0,0.,12.0,0.,12.0
1979-07-22 23:48:17.090 ,1,0,0.,12.0,0.,12.0,0.,12.0,0.,12.0
1979-07-22 23:48:29.090 ,1,0,0.,12.0,0.,12.0,0.,12.0,0.,12.0
1979-07-22 23:48:41.090 ,1,0,0.,12.0,0.,12.0,0.,12.0,0.,12.0
1979-07-22 23:48:53.090 ,2,0,0.,12.0,0.,12.0,0.,12.0,0.,12.0
1979-07-22 23:49:05.090 ,2,0,0.,12.0,0.,12.0,0.,12.0,0.,12.0
1979-07-22 23:49:17.090 ,2,0,0.,12.0,0.,12.0,0.,12.0,0.,12.0
1979-07-22 23:49:29.090 ,2,0,0.,12.0,0.,12.0,0.,12.0,0.,12.0
1979-07-22 23:49:41.090 ,3,0,0.,12.0,0.,12.0,0.,12.0,0.,12.0
1979-07-22 23:49:53.090 ,3,0,0.,12.0,0.,12.0,0.,12.0,0.,12.0
1979-07-22 23:50:05.090 ,3,0,0.,12.0,0.,12.0,0.,12.0,0.,12.0
1979-07-22 23:50:17.090 ,3,0,0.,12.0,0.,12.0,0.,12.0,0.,12.0
1979-07-22 23:50:29.090 ,4,0,0.,12.0,0.,12.0,0.,12.0,0.,12.0
1979-07-22 23:50:41.090 ,4,0,0.,12.0,0.,12.0,0.,12.0,0.,12.0
1979-07-22 23:50:53.090 ,4,0,0.,12.0,0.,12.0,0.,12.0,0.,12.0
1979-07-22 23:51:05.090 ,4,0,0.,12.0,0.,12.0,0.,12.0,0.,12.0
1979-07-22 23:51:17.090 ,5,0,0.,12.0,0.,12.0,0.,12.0,0.,12.0
1979-07-22 23:51:29.090 ,5,0,1.,12.0,0.,12.0,0.,12.0,0.,12.0
1979-07-22 23:51:41.090 ,5,0,0.,12.0,0.,12.0,0.,12.0,0.,12.0
1979-07-22 23:51:53.090 ,5,0,0.,12.0,0.,12.0,0.,12.0,0.,12.0
1979-07-22 23:52:05.090 ,6,0,0.,12.0,0.,12.0,0.,12.0,0.,12.0
1979-07-22 23:52:17.090 ,6,0,0.,12.0,0.,12.0,0.,12.0,0.,12.0
1979-07-22 23:52:29.090 ,6,0,1.,12.0,0.,12.0,0.,12.0,0.,12.0
1979-07-22 23:52:41.090 ,6,0,0.,12.0,0.,12.0,0.,12.0,0.,12.0
1979-07-22 23:52:53.090 ,7,0,0.,12.0,0.,12.0,0.,12.0,0.,12.0
1979-07-22 23:53:05.090 ,7,0,0.,12.0,0.,12.0,0.,12.0,0.,12.0
1979-07-22 23:53:17.090 ,7,0,0.,12.0,0.,12.0,0.,12.0,0.,12.0
1979-07-22 23:53:29.090 ,7,0,0.,12.0,0.,12.0,0.,12.0,0.,12.0
1979-07-22 23:53:41.090 ,7,0,0.,12.0,0.,12.0,0.,12.0,0.,12.0
1979-07-22 23:53:53.090 ,7,0,0.,12.0,0.,12.0,0.,12.0,0.,12.0
1979-07-22 23:54:05.090 ,7,0,0.,12.0,0.,12.0,0.,12.0,0.,12.0
1979-07-22 23:54:17.090 ,7,0,0.,12.0,0.,12.0,0.,12.0,0.,12.0
1979-07-22 23:54:29.090 ,6,0,0.,12.0,0.,12.0,0.,12.0,0.,12.0
1979-07-22 23:54:41.090 ,6,0,0.,12.0,0.,12.0,0.,12.0,0.,12.0
1979-07-22 23:54:53.090 ,6,0,0.,12.0,0.,12.0,0.,12.0,0.,12.0
1979-07-22 23:55:05.090 ,6,0,1.,12.0,0.,12.0,0.,12.0,0.,12.0
1979-07-22 23:55:17.090 ,5,0,0.,12.0,0.,12.0,0.,12.0,0.,12.0
1979-07-22 23:55:29.090 ,5,0,0.,12.0,0.,12.0,0.,12.0,0.,12.0
1979-07-22 23:55:41.090 ,5,0,0.,12.0,0.,12.0,0.,12.0,0.,12.0
1979-07-22 23:55:53.090 ,5,0,0.,12.0,0.,12.0,0.,12.0,0.,12.0
1979-07-22 23:56:05.090 ,4,0,1.,12.0,0.,12.0,0.,12.0,0.,12.0
1979-07-22 23:56:17.090 ,4,0,0.,12.0,0.,12.0,0.,12.0,0.,12.0
1979-07-22 23:56:29.090 ,4,0,0.,12.0,0.,12.0,0.,12.0,0.,12.0
1979-07-22 23:56:41.090 ,4,0,0.,12.0,0.,12.0,0.,12.0,0.,12.0
1979-07-22 23:56:53.090 ,3,0,0.,12.0,0.,12.0,0.,12.0,0.,12.0
1979-07-22 23:57:05.090 ,3,0,0.,12.0,0.,12.0,0.,12.0,0.,12.0
1979-07-22 23:57:17.090 ,3,0,0.,12.0,0.,12.0,0.,12.0,0.,12.0
1979-07-22 23:57:29.090 ,3,0,0.,12.0,0.,12.0,0.,12.0,0.,12.0
1979-07-22 23:57:41.090 ,2,0,0.,12.0,0.,12.0,0.,12.0,0.,12.0
1979-07-22 23:57:53.090 ,2,0,0.,12.0,0.,12.0,0.,12.0,0.,12.0
1979-07-22 23:58:05.090 ,2,0,0.,12.0,0.,12.0,0.,12.0,0.,12.0
1979-07-22 23:58:17.090 ,2,0,0.,12.0,0.,12.0,0.,12.0,0.,12.0
1979-07-22 23:58:29.090 ,1,0,0.,12.0,0.,12.0,0.,12.0,0.,12.0
1979-07-22 23:58:41.090 ,1,0,0.,12.0,0.,12.0,0.,12.0,0.,12.0
1979-07-22 23:58:53.090 ,1,0,0.,12.0,0.,12.0,0.,12.0,0.,12.0
1979-07-22 23:59:05.090 ,1,0,0.,12.0,0.,12.0,0.,12.0,0.,12.0
1979-07-22 23:59:17.090 ,0,0,0.,12.0,0.,12.0,0.,12.0,0.,12.0
1979-07-22 23:59:29.090 ,0,0,0.,12.0,0.,12.0,0.,12.0,0.,12.0
1979-07-22 23:59:41.090 ,0,0,0.,12.0,0.,12.0,0.,12.0,0.,12.0
1979-07-22 23:59:53.090 ,0,0,0.,12.0,0.,12.0,0.,12.0,0.,12.0
1979-07-23 00:00:05.090 ,0,0,0.,12.0,0.,12.0,0.,12.0,0.,12.0
1979-07-23 00:00:17.090 ,0,0,0.,12.0,0.,12.0,0.,12.0,0.,12.0
